Weather History for Winona, MN

Change the Weather History Date:

Tuesday, January 15, 2013

  Actual Average Record
Temperature  
Mean Temperature 20 °F -  
Max Temperature 32 °F 25 °F 42 °F (2000)
Min Temperature 8 °F 9 °F -18 °F (2009)
Degree Days  
Heating Degree Days 45    
Moisture  
Dew Point 11 °F    
Average Humidity 63    
Maximum Humidity 93    
Minimum Humidity 48    
Precipitation  
Precipitation 0.00 in - - ()
Sea Level Pressure  
Sea Level Pressure 30.20 in    
Wind  
Wind Speed 4 mph (SW)    
Max Wind Speed 10 mph    
Max Gust Speed 18 mph    
Visibility 10 miles    
Events      
Averages and records for this station are not official NWS values.
T = Trace of Precipitation, MM = Missing Value Source: NWS Daily Summary

Daily Weather History Graph

Daily Weather History Graph

Search for Another Location

Airport:

Trip Planner

Search our weather history database for the weather conditions in past years. The results will help you decide how hot, cold, wet, or windy it might be!

Date:

Astronomy

Jan. 15, 2013 Rise Set
Actual Time 7:38 AM CST 4:54 PM CST
Civil Twilight 7:06 AM CST 5:26 PM CST
Nautical Twilight 6:30 AM CST 6:02 PM CST
Astronomical Twilight 5:56 AM CST 6:37 PM CST
Moon 9:33 AM CST (1/15) 9:57 PM CST (1/15)
Length of Visible Light 10h 20m
Length of Day
9h 16m
Waxing Crescent, 19% of the Moon is Illuminated
Jan 15
Waxing Crescent
Jan 18
First Quarter
Jan 26
Full
Feb 3
Last Quarter
Feb 10
New

Hourly Weather History & Observations

Time (CST) Temp. Windchill Dew Point Humidity Pressure Visibility Wind Dir Wind Speed Gust Speed Precip Events Conditions
12:14 AM 8.6 °F - 5.0 °F 85% 30.37 in 10.0 mi Calm Calm - N/A   Clear
12:34 AM 8.6 °F - 5.0 °F 85% 30.37 in 10.0 mi Calm Calm - N/A   Clear
12:54 AM 10.4 °F - 6.8 °F 85% 30.37 in 10.0 mi Calm Calm - N/A   Clear
1:14 AM 8.6 °F - 5.0 °F 85% 30.36 in 10.0 mi Calm Calm - N/A   Clear
1:34 AM 8.6 °F - 5.0 °F 85% 30.35 in 10.0 mi Calm Calm - N/A   Clear
2:14 AM 8.6 °F - 5.0 °F 85% 30.35 in 10.0 mi Calm Calm - N/A   Clear
2:34 AM 8.6 °F - 5.0 °F 85% 30.35 in 10.0 mi Calm Calm - N/A   Clear
2:54 AM 8.6 °F - 5.0 °F 85% 30.34 in 10.0 mi Calm Calm - N/A   Clear
3:14 AM 10.4 °F - 6.8 °F 85% 30.34 in 10.0 mi Calm Calm - N/A   Clear
3:34 AM 8.6 °F - 5.0 °F 85% 30.33 in 10.0 mi Calm Calm - N/A   Clear
3:54 AM 8.6 °F - 5.0 °F 85% 30.33 in 10.0 mi Calm Calm - N/A   Clear
4:14 AM 8.6 °F - 5.0 °F 85% 30.32 in 10.0 mi Calm Calm - N/A   Clear
4:54 AM 8.6 °F - 5.0 °F 85% 30.30 in 10.0 mi Calm Calm - N/A   Clear
5:14 AM 14.0 °F 5.1 °F 12.2 °F 93% 30.30 in 10.0 mi SW 5.8 mph - N/A   Clear
5:34 AM 17.6 °F 10.7 °F 10.4 °F 73% 30.29 in 10.0 mi SW 4.6 mph - N/A   Clear
6:14 AM 19.4 °F 11.5 °F 12.2 °F 74% 30.29 in 10.0 mi SW 5.8 mph - N/A   Clear
6:34 AM 19.4 °F 11.5 °F 12.2 °F 74% 30.29 in 10.0 mi SW 5.8 mph - N/A   Clear
6:54 AM 19.4 °F 10.4 °F 10.4 °F 68% 30.29 in 10.0 mi SW 6.9 mph - N/A   Clear
7:14 AM 19.4 °F 12.8 °F 10.4 °F 68% 30.29 in 10.0 mi SW 4.6 mph - N/A   Clear
7:34 AM 17.6 °F 9.3 °F 8.6 °F 68% 30.29 in 10.0 mi SW 5.8 mph - N/A   Clear
7:54 AM 19.4 °F 11.5 °F 10.4 °F 68% 30.29 in 10.0 mi SW 5.8 mph - N/A   Clear
8:14 AM 19.4 °F 8.6 °F 8.6 °F 63% 30.29 in 10.0 mi SW 9.2 mph - N/A   Clear
8:34 AM 19.4 °F 11.5 °F 8.6 °F 63% 30.29 in 10.0 mi SW 5.8 mph - N/A   Scattered Clouds
8:54 AM 21.2 °F 14.9 °F 10.4 °F 63% 30.29 in 10.0 mi SW 4.6 mph - N/A   Overcast
9:14 AM 21.2 °F 13.6 °F 10.4 °F 63% 30.29 in 10.0 mi WSW 5.8 mph - N/A   Overcast
9:34 AM 23.0 °F 14.7 °F 10.4 °F 59% 30.28 in 10.0 mi SW 6.9 mph - N/A   Mostly Cloudy
9:54 AM 23.0 °F 14.7 °F 10.4 °F 59% 30.28 in 10.0 mi WSW 6.9 mph - N/A   Scattered Clouds
10:14 AM 24.8 °F 17.9 °F 10.4 °F 54% 30.28 in 10.0 mi WSW 5.8 mph - N/A   Clear
10:34 AM 26.6 °F 20.0 °F 12.2 °F 55% 30.28 in 10.0 mi WSW 5.8 mph - N/A   Clear
10:54 AM 26.6 °F 20.0 °F 12.2 °F 55% 30.27 in 10.0 mi WSW 5.8 mph - N/A   Scattered Clouds
11:14 AM 28.4 °F 22.2 °F 14.0 °F 55% 30.26 in 10.0 mi SW 5.8 mph - N/A   Scattered Clouds
11:34 AM 28.4 °F 23.3 °F 14.0 °F 55% 30.25 in 10.0 mi SSW 4.6 mph - N/A   Clear
11:54 AM 28.4 °F 19.7 °F 14.0 °F 55% 30.24 in 10.0 mi SSW 9.2 mph - N/A   Clear
12:14 PM 28.4 °F 21.2 °F 12.2 °F 51% 30.23 in 10.0 mi SW 6.9 mph - N/A   Clear
12:34 PM 30.2 °F 21.9 °F 14.0 °F 51% 30.22 in 10.0 mi SW 9.2 mph - N/A   Clear
12:55 PM 30.2 °F 23.4 °F 14.0 °F 51% 30.21 in 10.0 mi SSW 6.9 mph - N/A   Clear
1:34 PM 32.0 °F 24.8 °F 15.8 °F 51% 30.19 in 10.0 mi SW 8.1 mph - N/A   Clear
1:55 PM 32.0 °F 24.2 °F 14.0 °F 48% 30.18 in 10.0 mi WSW 9.2 mph 18.4 mph N/A   Clear
2:14 PM 32.0 °F 24.8 °F 15.8 °F 51% 30.17 in 10.0 mi WSW 8.1 mph 16.1 mph N/A   Clear
2:34 PM 32.0 °F 23.6 °F 14.0 °F 48% 30.17 in 10.0 mi SSW 10.4 mph - N/A   Clear
3:14 PM 32.0 °F 23.6 °F 14.0 °F 48% 30.17 in 10.0 mi SW 10.4 mph - N/A   Clear
3:24 PM 32.0 °F 24.8 °F 14.0 °F 48% 30.16 in 10.0 mi SW 8.1 mph - N/A   Clear
3:55 PM 32.0 °F 26.4 °F 14.0 °F 48% 30.16 in 10.0 mi SW 5.8 mph - N/A   Clear
3:57 PM 32.0 °F 27.5 °F 15.8 °F 51% 30.16 in 10.0 mi SW 4.6 mph - N/A   Clear
4:34 PM 30.2 °F 21.9 °F 14.0 °F 51% 30.14 in 10.0 mi SSW 9.2 mph - N/A   Clear
4:54 PM 30.2 °F 23.4 °F 14.0 °F 51% 30.13 in 10.0 mi SSW 6.9 mph - N/A   Clear
5:14 PM 28.4 °F 19.7 °F 14.0 °F 55% 30.13 in 10.0 mi SSW 9.2 mph - N/A   Clear
5:34 PM 28.4 °F 23.3 °F 12.2 °F 51% 30.13 in 10.0 mi SSW 4.6 mph - N/A   Clear
5:54 PM 28.4 °F 22.2 °F 14.0 °F 55% 30.13 in 10.0 mi South 5.8 mph - N/A   Clear
6:14 PM 28.4 °F 21.2 °F 14.0 °F 55% 30.12 in 10.0 mi SSW 6.9 mph - N/A   Clear
6:34 PM 28.4 °F 20.4 °F 14.0 °F 55% 30.11 in 10.0 mi SSW 8.1 mph - N/A   Clear
6:54 PM 28.4 °F 22.2 °F 14.0 °F 55% 30.11 in 10.0 mi SSW 5.8 mph - N/A   Clear
7:14 PM 28.4 °F 22.2 °F 14.0 °F 55% 30.11 in 10.0 mi SSW 5.8 mph - N/A   Clear
7:34 PM 28.4 °F 21.2 °F 14.0 °F 55% 30.10 in 10.0 mi SSW 6.9 mph - N/A   Clear
7:54 PM 28.4 °F 21.2 °F 14.0 °F 55% 30.08 in 10.0 mi SSW 6.9 mph - N/A   Clear
8:14 PM 28.4 °F 22.2 °F 14.0 °F 55% 30.08 in 10.0 mi SSW 5.8 mph - N/A   Clear
8:34 PM 28.4 °F 22.2 °F 15.8 °F 59% 30.07 in 10.0 mi SSW 5.8 mph - N/A   Clear
8:54 PM 28.4 °F 21.2 °F 14.0 °F 55% 30.06 in 10.0 mi SW 6.9 mph - N/A   Clear
9:14 PM 26.6 °F 19.1 °F 12.2 °F 55% 30.05 in 10.0 mi SSW 6.9 mph - N/A   Clear
9:34 PM 26.6 °F 20.0 °F 12.2 °F 55% 30.03 in 10.0 mi SSW 5.8 mph - N/A   Clear
9:54 PM 26.6 °F 18.2 °F 12.2 °F 55% 30.02 in 10.0 mi SSW 8.1 mph - N/A   Clear
10:14 PM 26.6 °F 20.0 °F 12.2 °F 55% 30.01 in 10.0 mi SW 5.8 mph - N/A   Clear
10:35 PM 26.6 °F 16.8 °F 12.2 °F 55% 30.00 in 10.0 mi SW 10.4 mph 16.1 mph N/A   Clear
10:54 PM 26.6 °F 17.5 °F 12.2 °F 55% 29.99 in 10.0 mi SSW 9.2 mph - N/A   Clear
11:14 PM 26.6 °F 17.5 °F 12.2 °F 55% 29.97 in 10.0 mi SW 9.2 mph 16.1 mph N/A   Clear
11:35 PM 26.6 °F 18.2 °F 12.2 °F 55% 29.96 in 10.0 mi SSW 8.1 mph - N/A   Clear
11:54 PM 26.6 °F 20.0 °F 12.2 °F 55% 29.95 in 10.0 mi SSW 5.8 mph - N/A   Clear